London-Corbin, KY

4:48 AM EDT on July 21, 2019 (GMT -0400)
London-Corbin / McKee

Weather History for KLOZ - May, 2019

Change the Weather History Date:

Saturday, May 11, 2019

  Actual Average Record
Temperature  
Mean Temperature 65 °F 64 °F  
Max Temperature 70 °F 75 °F 88 °F (2015)
Min Temperature 59 °F 52 °F 35 °F (1997)
Degree Days  
Heating Degree Days 0 4  
Month to date heating degree days 9 48  
Since 1 July heating degree days 3989 4149  
Cooling Degree Days 0 2  
Month to date cooling degree days 31 17  
Year to date cooling degree days 43 43  
Growing Degree Days 14 (Base 50)    
Moisture  
Dew Point 62 °F    
Average Humidity 92    
Maximum Humidity 100    
Minimum Humidity 84    
Precipitation  
Precipitation 0.56 in 0.16 in 1.94 in (2016)
Month to date precipitation 3.18 1.78  
Sea Level Pressure  
Sea Level Pressure 29.89 in    
Wind  
Wind Speed 5 mph (NNE)    
Max Wind Speed 10 mph    
Max Gust Speed 15 mph    
Visibility 8 miles    
Events Rain , Thunderstorm    
T = Trace of Precipitation, MM = Missing Value Source: NWS Daily Summary

Daily Weather History Graph

Daily Weather History Graph

Search for Another Location

Airport or City:

Astronomy

May. 11, 2019 Rise Set
Actual Time 6:31 AM EDT 8:34 PM EDT
Civil Twilight 6:03 AM EDT 9:02 PM EDT
Nautical Twilight 5:28 AM EDT 9:38 PM EDT
Astronomical Twilight 4:50 AM EDT 10:15 PM EDT
Moon 12:39 PM EDT (5/11) 2:13 AM EDT (5/11)
Length of Visible Light 14h 59m
Length of Day
14h 02m
Waxing Crescent, 46% of the Moon is Illuminated
May 11
Waxing Crescent
May 11
First Quarter
May 18
Full
May 26
Last Quarter
Jun 3
New

Hourly Weather History & Observations

Time (EDT) Temp. Dew Point Humidity Pressure Visibility Wind Dir Wind Speed Gust Speed Precip Events Conditions
12:53 AM 63.0 °F 60.1 °F 90% 30.04 in 10.0 mi NNE 8.1 mph - N/A   Overcast
1:53 AM 61.0 °F 60.1 °F 97% 30.03 in 8.0 mi North 8.1 mph - 0.01 in Rain Light Rain
2:24 AM 60.1 °F 59.0 °F 96% 30.06 in 7.0 mi NNE 8.1 mph - 0.00 in Rain Light Rain
2:53 AM 60.1 °F 59.0 °F 96% 30.02 in 7.0 mi NNE 8.1 mph - 0.01 in Rain Light Rain
3:46 AM 59.0 °F 59.0 °F 100% 30.02 in 7.0 mi NE 6.9 mph - 0.02 in Rain Light Rain
3:53 AM 59.0 °F 59.0 °F 100% 29.99 in 8.0 mi NE 5.8 mph - 0.02 in Rain Light Rain
4:14 AM 59.0 °F 59.0 °F 100% 30.02 in 9.0 mi NE 6.9 mph - 0.00 in Rain Light Rain
4:53 AM 59.0 °F 59.0 °F 100% 29.99 in 9.0 mi NNE 6.9 mph - 0.00 in   Overcast
5:53 AM 59.0 °F 59.0 °F 100% 29.97 in 8.0 mi NNE 6.9 mph - 0.02 in Rain Light Rain
6:53 AM 59.0 °F 59.0 °F 100% 29.97 in 6.0 mi NNE 3.5 mph - 0.02 in Rain Light Rain
7:53 AM 59.0 °F 59.0 °F 100% 29.97 in 7.0 mi North 5.8 mph - 0.03 in Rain Light Rain
8:53 AM 60.1 °F 60.1 °F 100% 29.97 in 10.0 mi NE 6.9 mph - 0.00 in   Overcast
9:53 AM 60.1 °F 60.1 °F 100% 29.97 in 10.0 mi NE 4.6 mph - N/A   Overcast
10:03 AM 60.1 °F 60.1 °F 100% 29.99 in 10.0 mi NE 5.8 mph - N/A   Overcast
10:41 AM 61.0 °F 61.0 °F 100% 29.98 in 10.0 mi NE 5.8 mph - 0.00 in   Overcast
10:53 AM 61.0 °F 61.0 °F 100% 29.96 in 10.0 mi NE 3.5 mph - 0.00 in Rain Light Rain
11:53 AM 62.1 °F 61.0 °F 96% 29.95 in 10.0 mi NNE 4.6 mph - 0.00 in   Overcast
12:53 PM 63.0 °F 61.0 °F 93% 29.93 in 10.0 mi ENE 3.5 mph - N/A   Overcast
1:53 PM 64.0 °F 62.1 °F 93% 29.91 in 10.0 mi NE 3.5 mph - N/A   Overcast
2:53 PM 66.0 °F 63.0 °F 90% 29.88 in 10.0 mi NE 3.5 mph - N/A   Overcast
3:53 PM 66.9 °F 63.0 °F 87% 29.86 in 10.0 mi Calm Calm - N/A   Overcast
4:02 PM 66.9 °F 63.0 °F 87% 29.88 in 10.0 mi Calm Calm - N/A   Overcast
4:12 PM 66.9 °F 64.0 °F 90% 29.88 in 10.0 mi NNE 3.5 mph - N/A   Overcast
4:53 PM 68.0 °F 64.0 °F 87% 29.83 in 10.0 mi North 8.1 mph - N/A   Overcast
5:53 PM 69.1 °F 64.0 °F 84% 29.81 in 10.0 mi NNE 6.9 mph - N/A   Scattered Clouds
6:53 PM 66.0 °F 64.0 °F 93% 29.80 in 10.0 mi North 6.9 mph - N/A   Overcast
7:17 PM 64.9 °F 64.0 °F 97% 29.82 in 4.0 mi NNE 4.6 mph - 0.02 in Rain Light Rain
7:43 PM 64.9 °F 64.0 °F 97% 29.80 in 10.0 mi NE 4.6 mph - 0.02 in   Overcast
7:53 PM 64.9 °F 64.0 °F 97% 29.78 in 10.0 mi NE 4.6 mph - 0.02 in   Overcast
8:15 PM 64.9 °F 64.0 °F 97% 29.80 in 10.0 mi NNE 3.5 mph - N/A   Overcast
8:53 PM 64.0 °F 64.0 °F 100% 29.78 in 10.0 mi NNW 4.6 mph - N/A   Overcast
9:53 PM 64.0 °F 63.0 °F 96% 29.78 in 10.0 mi Calm Calm - N/A   Overcast
10:35 PM 64.0 °F 64.0 °F 100% 29.79 in 10.0 mi Calm Calm - 0.00 in Rain Light Rain
10:53 PM 64.0 °F 64.0 °F 100% 29.75 in 8.0 mi Calm Calm - 0.00 in Rain Light Rain
11:03 PM 64.0 °F 64.0 °F 100% 29.78 in 1.8 mi NNW 3.5 mph - 0.10 in Rain Heavy Rain
11:24 PM 64.0 °F 64.0 °F 100% 29.77 in 1.2 mi Calm Calm - 0.26 in Rain , Thunderstorm Rain
11:27 PM 64.0 °F 64.0 °F 100% 29.77 in 2.5 mi SSE 3.5 mph - 0.27 in Rain , Thunderstorm Light Rain
11:33 PM 64.0 °F 64.0 °F 100% 29.76 in 3.0 mi Variable 5.8 mph - 0.31 in Rain Heavy Rain
11:53 PM 64.9 °F 64.9 °F 100% 29.73 in 6.0 mi South 6.9 mph - 0.35 in Rain Light Rain